Weather History for CYBW - April, 2013

Change the Weather History Date:

Thursday, April 11, 2013

  Actual Average Record
Temperature  
Mean Temperature 30 °F -  
Max Temperature 36 °F 50 °F 64 °F (2004)
Min Temperature 25 °F 27 °F 5 °F (1997)
Degree Days  
Heating Degree Days 34    
Moisture  
Dew Point 28 °F    
Average Humidity 87    
Maximum Humidity 100    
Minimum Humidity 60    
Precipitation  
Precipitation 0.20 in - - ()
Sea Level Pressure  
Sea Level Pressure 30.03 in    
Wind  
Wind Speed 8 mph ()    
Max Wind Speed 18 mph    
Max Gust Speed 22 mph    
Visibility 8.4 miles    
Events Snow    
Averages and records for this station are not official NWS values.
T = Trace of Precipitation, MM = Missing Value Source: Averaged Metar Reports

Daily Weather History Graph

Daily Weather History Graph

Search for Another Location

Airport or City:

Trip Planner

Search our weather history database for the weather conditions in past years. The results will help you decide how hot, cold, wet, or windy it might be!

Date:

Astronomy

Apr. 11, 2013 Rise Set
Actual Time 6:50 AM MDT 8:27 PM MDT
Civil Twilight 6:15 AM MDT 9:02 PM MDT
Nautical Twilight 5:33 AM MDT 9:45 PM MDT
Astronomical Twilight 4:46 AM MDT 10:32 PM MDT
Moon 7:14 AM MDT (4/11) 10:19 PM MDT (4/11)
Length of Visible Light 14h 46m
Length of Day
13h 37m
New Moon, 2% of the Moon is Illuminated
Apr 11
New Moon
Apr 18
First Quarter
Apr 25
Full
May 2
Last Quarter
May 9
New

Hourly Weather History & Observations

Time (MDT) Temp. Windchill Dew Point Humidity Pressure Visibility Wind Dir Wind Speed Gust Speed Precip Events Conditions
5:00 AM 28.4 °F 22.2 °F 24.8 °F 86% 29.90 in 15.0 mi NW 5.8 mph - N/A   Scattered Clouds
6:00 AM 30 °F - 26 °F 78% 29.90 in 15 mi NW 3.5 mph - -   Partly Cloudy
6:00 AM 30.2 °F 25.4 °F 26.6 °F 86% 29.90 in 15.0 mi WNW 4.6 mph - N/A   Mostly Cloudy
7:00 AM 26.6 °F 21.2 °F 24.8 °F 93% 29.93 in 30.0 mi NW 4.6 mph - N/A   Mostly Cloudy
8:00 AM 28.4 °F 24.6 °F 26.6 °F 93% 29.97 in 30.0 mi NW 3.5 mph - N/A   Mostly Cloudy
9:00 AM 32.0 °F 27.5 °F 30.2 °F 93% 29.97 in 20.0 mi NNW 4.6 mph - N/A Snow Light Snow
9:16 AM 32.0 °F 25.6 °F 30.2 °F 93% 29.98 in 10.0 mi NW 6.9 mph - N/A Snow Light Snow
9:34 AM 32.0 °F 26.4 °F 30.2 °F 93% 29.98 in 2.0 mi NNW 5.8 mph - N/A Snow Light Snow
9:43 AM 32.0 °F 26.4 °F 30.2 °F 93% 29.99 in 1.0 mi NNE 5.8 mph - N/A Snow Light Snow
10:45 AM 33.8 °F 25.8 °F 32.0 °F 93% 29.99 in 1.5 mi NE 10.4 mph - N/A Snow Light Snow
11:00 AM 33.8 °F 24.3 °F 32.0 °F 93% 29.99 in 2.0 mi NE 13.8 mph - N/A Snow Light Snow
12:00 PM 32 °F - 31 °F 93% 30.01 in 1 mi North 11.5 mph - -   Overcast
12:00 PM 32.0 °F 23.0 °F 30.2 °F 93% 30.00 in 1.5 mi North 11.5 mph - N/A Snow Light Snow
12:19 PM 32.0 °F 22.1 °F 30.2 °F 93% 30.01 in 0.8 mi NNE 13.8 mph - N/A Snow Light Snow
1:00 PM 32.0 °F 22.1 °F 30.2 °F 93% 30.02 in 0.5 mi North 13.8 mph 21.9 mph N/A Snow Snow
2:00 PM 32.0 °F 24.2 °F 30.2 °F 93% 30.03 in 1.0 mi North 9.2 mph - N/A Snow Light Snow
2:22 PM 33.8 °F 24.3 °F 28.4 °F 81% 30.04 in 5.0 mi North 13.8 mph 21.9 mph N/A Snow Light Snow
2:51 PM 33.8 °F 23.9 °F 28.4 °F 81% 30.04 in 15.0 mi North 15.0 mph 21.9 mph N/A   Mostly Cloudy
3:00 PM 33.8 °F 25.8 °F 28.4 °F 81% 30.04 in 15.0 mi North 10.4 mph 19.6 mph N/A   Overcast
4:00 PM 33.8 °F 24.8 °F 28.4 °F 81% 30.06 in 15.0 mi North 12.7 mph - N/A   Overcast
5:00 PM 35.6 °F 27.5 °F 23.0 °F 60% 30.06 in 0.0 mi North 11.5 mph - N/A   Mostly Cloudy
5:39 PM 35.6 °F 27.1 °F 24.8 °F 65% 30.06 in 15.0 mi NNW 12.7 mph 19.6 mph N/A   Mostly Cloudy
5:50 PM 33.8 °F 23.9 °F 26.6 °F 75% 30.08 in 15.0 mi NW 15.0 mph - N/A Snow Light Snow
6:00 PM 32 °F - 27 °F 74% 30.07 in 15 mi NNW 12.7 mph - - Snow Light Snow
6:00 PM 32.0 °F 23.6 °F 26.6 °F 80% 30.07 in 15.0 mi NNW 10.4 mph 18.4 mph N/A Snow Light Snow
6:15 PM 33.8 °F 27.7 °F 26.6 °F 75% 30.07 in 15.0 mi NNW 6.9 mph - N/A   Overcast
7:00 PM 30.2 °F 23.4 °F 28.4 °F 93% 30.10 in 15.0 mi West 6.9 mph - N/A   Mostly Cloudy
7:29 PM 30.2 °F 21.9 °F 28.4 °F 93% 30.11 in 15.0 mi WNW 9.2 mph - N/A Snow Light Snow
7:40 PM 30.2 °F 18.1 °F 28.4 °F 93% 30.12 in 0.5 mi NW 18.4 mph - N/A Snow Snow
8:00 PM 28.4 °F 18.5 °F 28.4 °F 100% 30.12 in 1.0 mi NW 11.5 mph - N/A Snow Light Snow
8:29 PM 28.4 °F 18.5 °F 26.6 °F 93% 30.14 in 1.0 mi NW 11.5 mph 20.7 mph N/A Snow Light Snow
9:00 PM 28.4 °F 19.1 °F 26.6 °F 93% 30.14 in 5.0 mi WNW 10.4 mph - N/A Snow Light Snow
9:18 PM 28.4 °F 18.5 °F 26.6 °F 93% 30.14 in 10.0 mi West 11.5 mph - N/A   Overcast
9:53 PM 28.4 °F 18.0 °F 26.6 °F 93% 30.16 in 10.0 mi West 12.7 mph 19.6 mph N/A Snow Light Snow
10:00 PM 28.4 °F 18.0 °F 24.8 °F 86% 30.01 in 10.0 mi West 12.7 mph - N/A   Overcast